TimePST,TemperatureF,Dew PointF,Humidity,Sea Level PressureIn,VisibilityMPH,Wind Direction,Wind SpeedMPH,Gust SpeedMPH,PrecipitationIn,Events,Conditions,WindDirDegrees,DateUTC
12:01 AM,42.8,39.2,87,30.25,1.2,Calm,Calm,-,N/A,,Clear,0,2012-11-23 08:01:00
12:12 AM,39.2,37.4,93,30.25,0.2,Calm,Calm,-,N/A,Fog,Fog,0,2012-11-23 08:12:00
12:53 AM,39.0,39.0,100,30.26,0.2,Calm,Calm,-,N/A,Fog,Fog,0,2012-11-23 08:53:00
1:09 AM,39.2,37.4,93,30.25,1.0,Calm,Calm,-,N/A,,Clear,0,2012-11-23 09:09:00
1:17 AM,39.2,37.4,93,30.25,6.0,Calm,Calm,-,N/A,,Clear,0,2012-11-23 09:17:00
1:47 AM,39.2,39.2,100,30.25,1.8,Calm,Calm,-,N/A,,Clear,0,2012-11-23 09:47:00
1:48 AM,39.0,39.0,100,30.26,1.5,Calm,Calm,-,N/A,,Clear,0,2012-11-23 09:48:00
2:01 AM,41.0,39.2,93,30.25,3.0,Calm,Calm,-,N/A,,Clear,0,2012-11-23 10:01:00
2:11 AM,41.0,39.2,93,30.25,1.8,Calm,Calm,-,N/A,,Clear,0,2012-11-23 10:11:00
2:22 AM,39.2,37.4,93,30.25,1.2,Calm,Calm,-,N/A,,Partly Cloudy,0,2012-11-23 10:22:00
2:30 AM,39.2,37.4,93,30.25,0.8,Calm,Calm,-,N/A,,Mist,0,2012-11-23 10:30:00
2:39 AM,39.2,37.4,93,30.25,0.2,Calm,Calm,-,N/A,Fog,Fog,0,2012-11-23 10:39:00
2:53 AM,37.9,37.9,100,30.26,0.2,Calm,Calm,-,N/A,Fog,Fog,0,2012-11-23 10:53:00
3:53 AM,39.0,37.9,96,30.25,0.2,Calm,Calm,-,N/A,Fog,Fog,0,2012-11-23 11:53:00
4:07 AM,39.2,37.4,93,30.25,0.2,Calm,Calm,-,N/A,Fog,Fog,0,2012-11-23 12:07:00
4:41 AM,37.4,35.6,93,30.25,0.2,Calm,Calm,-,N/A,Fog,Fog,0,2012-11-23 12:41:00
4:53 AM,36.0,36.0,100,30.26,0.2,Calm,Calm,-,N/A,Fog,Fog,0,2012-11-23 12:53:00
5:26 AM,37.4,35.6,93,30.25,0.2,Calm,Calm,-,N/A,Fog,Fog,0,2012-11-23 13:26:00
5:53 AM,37.0,37.0,100,30.27,0.2,Calm,Calm,-,N/A,Fog,Fog,0,2012-11-23 13:53:00
6:53 AM,37.0,36.0,96,30.28,0.2,Calm,Calm,-,N/A,Fog,Fog,0,2012-11-23 14:53:00
7:50 AM,41.0,39.2,93,30.29,0.2,Calm,Calm,-,N/A,Fog,Fog,0,2012-11-23 15:50:00
7:53 AM,41.0,41.0,100,30.30,0.2,Calm,Calm,-,N/A,Fog,Fog,0,2012-11-23 15:53:00
8:53 AM,44.1,44.1,100,30.31,0.2,Calm,Calm,-,N/A,Fog,Fog,0,2012-11-23 16:53:00
9:17 AM,46.4,44.6,93,30.30,0.8,Calm,Calm,-,N/A,,Overcast,0,2012-11-23 17:17:00
9:45 AM,48.2,46.4,93,30.30,1.8,Calm,Calm,-,N/A,,Mostly Cloudy,0,2012-11-23 17:45:00
9:53 AM,48.9,46.9,93,30.31,3.0,Calm,Calm,-,N/A,,Mostly Cloudy,0,2012-11-23 17:53:00
10:01 AM,51.8,46.4,82,30.30,4.0,Calm,Calm,-,N/A,,Scattered Clouds,0,2012-11-23 18:01:00
10:53 AM,55.9,48.0,75,30.29,6.0,Calm,Calm,-,N/A,,Haze,0,2012-11-23 18:53:00
11:53 AM,60.1,48.0,64,30.25,7.0,Calm,Calm,-,N/A,,Clear,0,2012-11-23 19:53:00
12:53 PM,63.0,46.9,56,30.22,8.0,Calm,Calm,-,N/A,,Clear,0,2012-11-23 20:53:00
1:53 PM,64.9,46.9,52,30.20,9.0,WNW,3.5,-,N/A,,Clear,290,2012-11-23 21:53:00
2:53 PM,66.9,48.0,51,30.19,9.0,NW,5.8,-,N/A,,Clear,310,2012-11-23 22:53:00
3:53 PM,64.9,48.0,54,30.19,9.0,NW,5.8,-,N/A,,Clear,320,2012-11-23 23:53:00
4:53 PM,60.1,46.9,62,30.19,9.0,NW,3.5,-,N/A,,Clear,310,2012-11-24 00:53:00
5:53 PM,54.0,46.0,75,30.19,9.0,Calm,Calm,-,N/A,,Clear,0,2012-11-24 01:53:00
6:53 PM,48.9,45.0,86,30.20,9.0,NW,3.5,-,N/A,,Clear,320,2012-11-24 02:53:00
7:53 PM,46.9,43.0,86,30.22,7.0,Calm,Calm,-,N/A,,Clear,0,2012-11-24 03:53:00
8:53 PM,48.9,46.0,90,30.22,7.0,Calm,Calm,-,N/A,,Clear,0,2012-11-24 04:53:00
9:53 PM,45.0,43.0,93,30.23,5.0,Calm,Calm,-,N/A,,Clear,0,2012-11-24 05:53:00
10:53 PM,45.0,42.1,90,30.22,4.0,Calm,Calm,-,N/A,,Clear,0,2012-11-24 06:53:00
11:00 PM,42.8,42.8,100,30.22,1.5,Calm,Calm,-,N/A,,Clear,0,2012-11-24 07:00:00
11:14 PM,41.0,37.4,87,30.22,3.0,Calm,Calm,-,N/A,,Clear,0,2012-11-24 07:14:00
11:20 PM,42.8,37.4,81,30.22,1.8,Calm,Calm,-,N/A,,Clear,0,2012-11-24 07:20:00
11:34 PM,42.8,39.2,87,30.22,0.2,Calm,Calm,-,N/A,Fog,Fog,0,2012-11-24 07:34:00
11:53 PM,39.0,37.9,96,30.23,1.5,Calm,Calm,-,N/A,,Clear,0,2012-11-24 07:53:00